DateTimeUTC,F1_A11,F1_S11,BsB_S11,BsG_S11,BsR_S11,BbsB_S11,BbsG_S11,BbsR_S11,BaB_A11,BaG_A11,BaR_A11,Tu_S11,T_S11,Uu_S11,U_S11,P_S11,T1_A11
2021-02-06T17:00:00Z,00000200,21000000,,,,,,,0000.09,0000.07,-000.37,15.0,22.8,,00.0,0654.0,30.8
2021-02-06T17:01:00Z,00000200,21000000,,,,,,,0000.40,0000.44,0000.35,15.0,22.8,,00.0,0654.0,30.8
2021-02-06T17:02:00Z,00000200,21000000,,,,,,,-000.04,0000.07,-000.00,15.0,22.8,,00.0,0654.0,30.8
2021-02-06T17:03:00Z,00000200,61000000,,,,,,,-000.08,0000.43,0000.51,15.0,22.8,,00.0,0654.0,30.8
2021-02-06T17:04:00Z,00000200,41000000,0000.64,0000.21,0000.19,0000.07,0000.32,-000.08,0000.12,-000.09,-000.04,15.4,22.6,,00.0,0655.0,30.8
2021-02-06T17:05:00Z,00000200,01000000,0000.57,0000.13,-000.05,0000.16,0000.14,-000.06,0000.26,0000.40,0000.12,15.5,22.6,,00.0,0655.1,30.9
2021-02-06T17:06:00Z,00000200,01000000,0000.63,-000.08,-000.20,-000.18,0000.30,0000.24,-000.21,0000.10,-000.31,15.6,22.6,,00.0,0655.1,30.9
2021-02-06T17:07:00Z,00000200,01000000,-000.15,-000.05,-000.04,-000.06,0000.19,0000.25,0000.48,0000.25,0000.43,15.7,22.6,,00.0,0655.1,30.9
2021-02-06T17:08:00Z,00000200,01000000,-000.66,-000.10,0000.24,0000.27,0000.05,0000.23,-000.19,-000.38,-000.29,15.8,22.7,,00.0,0655.1,30.9
2021-02-06T17:09:00Z,00000200,01000000,0000.71,-000.01,0000.13,0000.14,0000.12,-000.17,-000.04,-000.09,0000.29,15.8,22.6,,00.0,0655.1,30.9
2021-02-06T17:10:00Z,00000200,01000000,-000.37,0000.32,0000.04,0000.33,0000.11,0000.16,-000.16,-000.02,-000.03,15.8,22.6,,00.0,0655.2,30.9
2021-02-06T17:11:00Z,00000200,01000000,0000.26,-000.05,0000.34,0000.29,0000.40,0000.13,0000.15,-000.09,-000.32,15.7,22.6,,00.0,0655.2,30.9
2021-02-06T17:12:00Z,00000200,01000000,0000.66,0000.19,0000.18,-000.09,0000.02,0000.11,-000.10,0000.44,0000.12,15.7,22.6,,00.0,0655.2,30.9
2021-02-06T17:13:00Z,00000200,01000000,0000.01,0000.03,-000.16,0000.29,0000.54,0000.17,-000.09,-000.05,0000.00,15.6,22.5,,00.0,0655.2,30.9
2021-02-06T17:14:00Z,00000200,01000000,-000.07,-000.15,0000.05,0000.32,0000.13,0000.31,-000.13,-000.61,-000.09,15.6,22.5,,00.0,0655.2,30.9
2021-02-06T17:15:00Z,00000200,01000000,0000.77,0000.04,0000.11,-000.02,0000.14,-000.05,0000.37,0000.11,0000.06,15.6,22.5,,00.0,0655.2,30.8
2021-02-06T17:16:00Z,00000200,01000000,0000.57,0000.15,-000.01,0000.38,0000.13,0000.16,0000.32,-000.06,0000.33,15.6,22.5,,00.0,0655.2,30.8
2021-02-06T17:17:00Z,00000200,01000000,0000.55,-000.02,-000.25,0000.48,0000.22,-000.01,0000.02,0000.95,0000.04,15.6,22.5,,00.0,0655.2,30.8
2021-02-06T17:18:00Z,00000200,01000000,0000.41,0000.13,-000.25,0000.12,0000.28,-000.21,0000.06,-000.21,0000.04,15.7,22.5,,00.0,0655.2,30.9
2021-02-06T17:19:00Z,00000200,01000000,0000.54,-000.04,0000.17,0000.20,0000.11,-000.02,0000.02,-000.06,0000.36,15.8,22.6,,00.0,0655.2,30.9
2021-02-06T17:20:00Z,00000200,01000000,0000.39,0000.04,-000.17,-000.26,0000.32,-000.11,-000.04,0000.22,-000.07,15.9,22.6,,00.0,0655.3,30.9
2021-02-06T17:21:00Z,00000200,01000000,-000.06,0000.05,-000.06,-000.13,0000.26,0000.01,0000.25,0000.30,0000.42,15.9,22.7,,00.0,0655.2,30.9
2021-02-06T17:22:00Z,00000200,01000000,0000.21,0000.15,-000.04,0000.21,0000.33,0000.11,-000.07,-000.17,-000.29,16.0,22.7,,00.0,0655.2,30.9
2021-02-06T17:23:00Z,00000200,01000000,0000.84,0000.32,0000.18,-000.42,0000.24,-000.20,0000.15,-000.03,-000.00,16.1,22.7,,00.0,0655.3,30.9
2021-02-06T17:24:00Z,00000200,01000000,0000.16,0000.22,-000.08,0000.65,0000.37,0000.25,-000.08,-000.46,-000.35,16.1,22.7,,00.0,0655.2,30.9
2021-02-06T17:25:00Z,00000200,01000000,-000.06,0000.26,0000.13,-000.01,0000.13,-000.09,0000.05,0000.41,0000.07,16.1,22.7,,00.0,0655.2,30.9
2021-02-06T17:26:00Z,00000200,01000000,0000.62,-000.04,-000.16,0000.42,0000.33,0000.01,-000.08,0000.13,0000.05,16.0,22.7,,00.0,0655.2,30.9
2021-02-06T17:27:00Z,00000200,01000000,-000.57,-000.24,0000.18,-000.28,0000.27,-000.04,0000.50,0000.33,0000.29,15.9,22.7,,00.0,0655.2,30.9
2021-02-06T17:28:00Z,00000200,01000000,-000.20,-000.20,0000.13,0000.01,0000.07,0000.26,-000.05,0000.05,0000.04,15.9,22.7,,00.0,0655.2,30.9
2021-02-06T17:29:00Z,00000200,01000000,0000.64,-000.01,0000.26,-000.58,-000.04,-000.19,0000.13,-000.31,-000.13,15.9,22.6,,00.0,0655.2,30.9
2021-02-06T17:30:00Z,00000200,01000000,-000.32,-000.34,-000.30,0000.05,0000.21,-000.04,-000.08,-000.02,0000.30,15.8,22.6,,00.0,0655.3,30.9
2021-02-06T17:31:00Z,00000200,01000000,0000.59,-000.33,-000.14,0000.43,0000.09,-000.04,0000.42,0000.46,0000.36,15.9,22.6,,00.0,0655.3,30.9
2021-02-06T17:32:00Z,00000200,01000000,0000.64,-000.08,0000.29,-000.19,0000.33,0000.05,-000.03,0000.20,-000.39,15.9,22.6,,00.0,0655.3,30.9
2021-02-06T17:33:00Z,00000200,01000000,0000.35,-000.03,0000.07,0000.30,0000.21,0000.23,0000.12,-000.21,0000.06,16.0,22.7,,00.0,0655.3,30.9
2021-02-06T17:34:00Z,00000200,01000000,0000.24,-000.05,-000.05,0000.07,0000.17,0000.02,0000.10,0000.36,0000.01,16.0,22.7,,00.0,0655.3,30.9
2021-02-06T17:35:00Z,00000200,01000000,0000.56,-000.02,0000.16,0000.10,0000.15,0000.40,-000.56,-000.47,-000.01,16.1,22.7,,00.0,0655.3,30.9
2021-02-06T17:36:00Z,00000200,01000000,0000.39,0000.04,-000.10,0000.36,0000.19,-000.02,0000.36,-000.03,-000.13,16.1,22.8,,00.0,0655.3,30.9
2021-02-06T17:37:00Z,00000200,01000000,0000.73,0000.00,-000.08,0000.53,0000.25,0000.29,-000.33,0000.21,0000.13,16.1,22.7,,00.0,0655.3,30.9
2021-02-06T17:38:00Z,00000200,01000000,-000.65,0000.23,-000.12,-000.41,0000.02,0000.14,0000.12,-000.05,-000.02,16.1,22.7,,00.0,0655.3,30.9
2021-02-06T17:39:00Z,00000200,01000000,0000.26,-000.09,0000.26,0000.30,0000.01,0000.17,0000.30,0000.58,0000.13,16.0,22.7,,00.0,0655.3,30.9
2021-02-06T17:40:00Z,00000200,01000000,0000.43,-000.08,0000.32,0000.30,0000.11,-000.07,-000.13,0000.02,0000.31,16.0,22.7,,00.0,0655.3,30.9
2021-02-06T17:41:00Z,00000200,01000000,0000.86,0000.03,-000.18,0000.18,0000.13,-000.03,-000.09,-000.23,-000.32,15.9,22.7,,00.0,0655.4,30.9
2021-02-06T17:42:00Z,00000200,01000000,0000.31,0000.03,0000.07,0000.22,0000.12,0000.05,0000.19,-000.05,0000.18,15.8,22.6,,00.0,0655.4,30.9
2021-02-06T17:43:00Z,00000200,01000000,-000.12,0000.14,-000.18,-000.32,0000.27,0000.01,-000.19,-000.02,-000.29,15.8,22.6,,00.0,0655.4,30.9
2021-02-06T17:44:00Z,00000200,01000000,-000.17,0000.07,-000.03,-000.21,0000.21,-000.06,0000.05,-000.61,-000.09,15.7,22.6,,00.0,0655.3,30.8
2021-02-06T17:45:00Z,00000200,01000000,0000.68,-000.08,0000.21,-000.21,0000.27,0000.06,0000.28,0000.57,0000.54,15.7,22.6,,00.0,0655.3,30.8
2021-02-06T17:46:00Z,00000200,01000000,0000.07,-000.07,-000.11,0000.06,0000.30,-000.17,0000.80,0000.59,0000.35,15.7,22.5,,00.0,0655.3,30.8
2021-02-06T17:47:00Z,00000200,01000000,0000.52,-000.02,0000.27,-000.02,0000.21,0000.07,-000.59,-000.08,-000.02,15.8,22.6,,00.0,0655.4,30.8
2021-02-06T17:48:00Z,00000200,01000000,0000.05,-000.22,-000.19,-000.02,-000.08,0000.26,0000.45,-000.36,-000.44,15.8,22.6,,00.0,0655.4,30.9
2021-02-06T17:49:00Z,00000200,01000000,0000.30,0000.01,0000.07,0000.24,0000.03,-000.00,-000.01,0000.36,0000.35,15.9,22.6,,00.0,0655.4,30.9
2021-02-06T17:50:00Z,00000200,01000000,0000.82,-000.14,0000.07,0000.25,0000.23,-000.19,-000.16,-000.25,0000.07,15.9,22.7,,00.0,0655.4,30.9
2021-02-06T17:51:00Z,00000200,01000000,0000.28,-000.26,0000.21,-000.11,-000.00,0000.06,0000.25,0000.52,-000.09,16.0,22.7,,00.0,0655.5,30.9
2021-02-06T17:52:00Z,00000200,01000000,0000.25,-000.11,-000.01,-000.10,0000.23,0000.05,-000.07,0000.10,0000.37,16.1,22.7,,00.0,0655.5,30.9
2021-02-06T17:53:00Z,00000200,01000000,0000.64,-000.17,0000.06,-000.01,0000.15,0000.07,-000.19,-000.35,-000.01,16.2,22.8,,00.0,0655.5,30.9
2021-02-06T17:54:00Z,00000200,01000000,0000.54,-000.04,-000.01,0000.29,0000.10,0000.07,-000.02,0000.23,-000.11,16.2,22.8,,00.0,0655.5,30.9
2021-02-06T17:55:00Z,00000200,01000000,0000.20,-000.08,0000.00,0000.18,0000.37,0000.07,-000.13,-000.08,-000.13,16.3,22.8,,00.0,0655.5,30.9
2021-02-06T17:56:00Z,00000200,01000000,0000.43,0000.38,0000.04,0000.02,0000.14,-000.28,0000.42,0000.31,0000.36,16.3,22.8,,00.0,0655.5,30.9
2021-02-06T17:57:00Z,00000200,41000000,,,,,,,0000.71,0000.32,0000.12,16.3,22.9,,00.0,0655.4,30.9
2021-02-06T17:58:00Z,00000200,61000000,,,,,,,-000.56,0000.01,-000.30,15.9,23.0,,00.0,0654.5,30.9
2021-02-06T17:59:00Z,00000200,21000000,,,,,,,-000.03,-000.50,0000.02,15.8,23.1,,00.0,0654.5,30.9
